Location: Newark
(27.2452°N, 107.0032°W)
Time: 11:53:44
(UTC+00:00)

Hubble Space Telescope - Pass Details

Date: 16 December 2019
Orbit: 536 x 540 km, 28.5° (Epoch: 22 January)

Event Time Altitude Azimuth Distance (km) Brightness Sun altitude
Exits shadow 11:15:58 18° 95° (E) 1,354 3.5 -33.4°
Drops below altitude 10° 11:17:10 10° 88° (E) 1,785 4.2 -33.1°
Sets 11:19:30 0° 82° (E) 2,677 5.3 -32.6°
